Starlink 32957

operational
NORAD ID: 63124 Int'l Des: 2025-039 Owner: SPXS Country: US Constellation: starlink
LEOCIRCULAR

Starlink 32957について

説明を読み込み中...

リアルタイム位置

3D地球を読み込み中...

次回通過

高度履歴

Altitude vs Time

uPlot chart will show altitude changes over time

軌道要素

1 63124U 25039W 25348.41726287 .00027919 00000-0 10200-2 0 9997
2 63124 42.9966 134.5134 0000533 284.0387 76.0405 15.27587674 45023
Epoch: Dec 14, 2025 • Age: 35 hours

現在のステータス

高度 484.8 km
速度 7.63 km/s
衛星直下点 36.80°N, 142.44°E
打ち上げ日 Feb 27, 2025
運用期間 0.7 years
タイプ internet

技術仕様

分類 Payload
質量 730.00 kg
乾燥質量 700.00 kg
総質量 730.00 kg
長さ 0.30 m
直径 4.10 m
スパン 29.00 m
形状 Box + pan
製造者 SPXS
バスタイプ Starlink V2M
フェーズステータス In Orbit
所有者/国 SPXS/US

大規模コンステレーション

Loading constellations...